Home > Weather > Öhringen > Past weeks

Flag for Germany Past Weather in Öhringen, Baden-Württemberg, Germany — Yesterday and Last 2 Weeks

Now
70 °F

Broken clouds.


Feels Like: 70 °F
Forecast: 56 / 75 °F
Wind: 9 mph from West

Location: Niederstetten

Current Time: Jun 30, 2016 at 4:06:32 PM

Latest Report: Jun 30, 2016 at 3:20 PM


Visibility: N/A

Pressure: 30.01 "Hg

Humidity: 60%

Dew Point: 55 °F

Location of ÖhringenLocation

Past Weather in Öhringen — Graph

°F

Öhringen Temperature Yesterday

Maximum temperature yesterday: 72 °F (at 4:20 PM)
Minimum temperature yesterday: 59 °F (at 5:20 AM)
Average temperature yesterday: 65 °F

High & Low Weather Summary for the Past Weeks

 TemperatureHumidityPressure
High88 °F (Jun 23, 5:00 PM)100% (Jun 16, 9:20 PM)30.27 "Hg (Jun 16, 9:20 PM)
Low46 °F (Jun 20, 3:20 AM)40% (Jun 24, 5:20 PM)29.59 "Hg (Jun 15, 2:20 PM)
Average63 °F76%30.04 "Hg
* Reported Jun 15 2:20 PM — Jun 30 2:20 PM, Öhringen, Weather by CustomWeather, © 2016

Note: Actual official high and low records may vary slightly from our data, if they occured in-between our weather recording intervals... More about our weather records

Advertising

Öhringen Weather History for the Previous 24 Hours

Scroll right to see more
 ConditionsComfort  
Time TempWeatherWind HumidityBarometerVisibility
2:20 PM
Thu, Jun 30
70 °FBroken clouds.15 mph60%30.01 "HgN/A
1:20 PM68 °FBroken clouds.13 mph64%30.01 "HgN/A
12:20 PM70 °FPartly sunny.12 mph69%30.01 "HgN/A
11:20 AM66 °FBroken clouds.10 mph73%30.01 "HgN/A
10:20 AM64 °FBroken clouds.7 mph78%30.01 "HgN/A
9:20 AM61 °FPartly sunny.5 mph88%30.01 "HgN/A
8:20 AM61 °FPartly sunny.6 mph88%30.01 "HgN/A
7:20 AM61 °FScattered showers. Partly sunny.7 mph83%29.98 "HgN/A
6:20 AM59 °FPartly sunny.6 mph88%29.98 "HgN/A
5:20 AM57 °FPassing clouds.2 mph88%29.95 "HgN/A
4:20 AM57 °FPassing clouds.3 mph88%29.95 "HgN/A
3:20 AM57 °FPassing clouds.3 mph88%29.95 "HgN/A
2:20 AM59 °FPassing clouds.1 mph82%29.95 "HgN/A
1:20 AM57 °FPassing clouds.1 mph88%29.95 "HgN/A
12:20 AM59 °FPassing clouds.2 mph82%29.98 "HgN/A
11:20 PM
Wed, Jun 29
59 °FPassing clouds.2 mph88%29.98 "HgN/A
10:20 PM63 °FPassing clouds.2 mph77%29.98 "HgN/A
9:20 PM64 °FScattered clouds.2 mph73%29.95 "HgN/A
8:20 PM68 °FScattered clouds.6 mph60%29.95 "HgN/A
7:20 PM70 °FScattered clouds.8 mph53%29.95 "HgN/A
6:20 PM70 °FScattered clouds.8 mph57%29.95 "HgN/A
5:20 PM72 °FScattered clouds.10 mph50%29.98 "HgN/A
5:00 PM72 °FScattered clouds.12 mph53%29.98 "HgN/A
4:20 PM72 °FScattered clouds.12 mph53%29.98 "HgN/A
Weather by CustomWeather, © 2016

See weather overviewHow to use our weather pages